www.pogodaiklimat.ru

Погода и климат >> Архив погоды >> Азербайджан >> Курдамир


ПОГОДА в Курдамире

  • Прогноз погоды в Курдамире
  • Монитор погоды в Курдамире

АРХИВ ПОГОДЫ в Курдамире

Время (UTC), дата Ветер
(напр.,м/с)
 
Видим.   Явления Облачность Т
(С)
Тd
(С)
f
(%)
Тe
(С)
Тes
(С)
Комфортность P
(гПа)
Po
(гПа)
Тmin
(С)
Tmax
(С)
R
(мм)
R24
(мм)
S
(см)
18 9.06 ЮВ 2 20 км ясно +25.9 +10.9 39 +27 +27 жарко 1017.2 1016.7 +35.8
00 10.06 В 2 20 км ясно +21.6 +11.0 51 +23 +23 комфорт 1017.3 1016.8
06 10.06 Ю 2 20 км 8/3 600 м
[Cu med, cong Ci ing]
+29.8 +8.1 26 +29 +37 жарко 1018.1 1017.6 +21.5
12 10.06 В 3 20 км 9/4 600 м
[Cu med, cong Ci ing]
+33.7 +8.2 21 +32 +37 жарко 1015.5 1015.0
18 10.06 ЮВ 2 20 км 9/8 600 м
[Cb cap Ac trans]
+26.5 +8.5 32 +27 +27 жарко 1016.1 1015.6 +35.3
00 11.06 4400 м 5/0 2000 м
[]
+20.8 +9.7 49 1013.9 1013.4
06 11.06 ЮВ 2 20 км 6/0
[Ac trans]
+29.3 +12.4 35 +30 +39 жарко 1015.2 1014.7 +20.7
12 11.06 ЮВ 1 20 км 8/4 600 м
[Cu med, cong Ac trans]
+33.2 +15.2 34 +35 +40 душно 1012.6 1012.1
18 11.06 З 1 20 км 9/5 600 м
[Sc Ac trans]
+27.5 +13.7 43 +30 +30 жарко 1012.0 1011.5 +33.6
00 12.06 ЮВ 2 20 км ясно +24.0 +15.8 60 +27 +27 жарко 1008.1 1007.6
06 12.06 ЮЗ 2 20 км 4/0
[Ac trans]
+29.7 +19.1 53 +35 +45 очень
душно
1009.4 1008.9 +22.7
12 12.06 ЮВ 3 20 км 4/3 600 м
[Cu med, cong Ac trans]
+35.7 +16.3 32 +38 +44 очень
душно
1006.4 1005.9
18 12.06 Ю 2 20 км 4/3 600 м
[Sc Ac trans]
+26.9 +5.8 26 +26 +26 жарко 1007.5 1007.0 +36.2
00 13.06 СЗ 2 20 км ясно +20.9 +11.8 56 +24 +24 комфорт 1007.6 1007.1
06 13.06 З 5 20 км 9/0
[Ac trans Ci ing]
+29.9 +8.6 26 +29 +34 жарко 1008.9 1008.4 +21.8
12 13.06 СЗ 3 20 км 6/0
[Ci ing]
+35.1 +9.7 21 +34 +42 очень
жарко
1005.8 1005.3
18 13.06 В 3 20 км ясно +27.7 +11.5 37 +29 +29 жарко 1006.9 1006.4 +36.6
00 14.06 ЮВ 2 20 км 4/3 600 м
[Sc Ac trans]
+23.6 +15.1 59 +26 +26 жарко 1008.9 1008.4
06 14.06 З 2 20 км 4/4 600 м
[Cu med, cong]
+31.9 +7.3 22 +31 +39 жарко 1010.8 1010.3 +22.5
12 14.06 Ю 2 20 км 3/0
[Ci ing]
+37.2 +8.6 18 +35 +46 очень
жарко
1009.0 1008.5
18 14.06 ЮЗ 2 20 км ясно +28.1 +12.1 37 +29 +29 жарко 1011.5 1011.0 +38.1
00 15.06 В 1 20 км ясно +22.0 +13.7 59 +25 +25 комфорт 1012.5 1012.0
06 15.06 штиль 0 20 км ясно +30.1 +11.8 32 +31 +49 жарко 1013.8 1013.3 +21.9
12 15.06 Ю 2 20 км ясно +36.2 +8.0 18 +34 +46 очень
жарко
1010.3 1009.8
18 15.06 ЮВ 2 20 км ясно +26.1 +8.1 32 +26 +26 жарко 1011.0 1010.5 +36.6
00 16.06 С 1 20 км ясно +20.5 +9.7 50 +23 +23 комфорт 1010.4 1009.9
06 16.06 СЗ 2 20 км ясно +28.7 +5.3 23 +27 +41 жарко 1010.6 1010.1 +20.4
12 16.06 Ю 2 20 км ясно +36.3 +7.9 18 +34 +46 очень
жарко
1006.3 1005.8

 

Местоположение метеостанции Курдамир (Азербайджан): широта 40.33 долгота 48.17 высота над уровнем моря 4 м.

В архиве по умолчанию представлена погода в Курдамире за последнюю неделю. Архивные данные за месяц целиком и за предыдущие месяцы, начиная с января 2011 года, Вы можете получить, выбрав интересующий диапазон дат из раскрывающегося списка и нажав кнопку "Ввод!".


*Определитесь, кто Вы:
робот инопланетянин человек

Внимание! Время в таблицах - всемирное. Для получения местного времени необходимо прибавить поправку, которая равна 4 ч.

Смотрите также архив погоды в соседних городах и на ближайших метеорологических станциях:

Погода в Геокчае (Азербайджан) (50 км)
Погода в Шемахе (Азербайджан) (51 км)
Погода в Маразе (Азербайджан) (68 км)
Погода в Беылагане (Азербайджан) (72 км)
Погода в Габале (Азербайджан) (77 км)
Погода в Парсабаде (Иран) (79 км)
Погода в Барде (Азербайджан) (88 км)
Погода в Евлахе (Азербайджан) (92 км)
Погода в Алате (Азербайджан) (112 км)
Погода в Губе (Азербайджан) (119 км)

Пояснения к столбцам:

Ветер - указаны скорость ветра в м/с - средняя за 10 мин, порывы в срок и между сроками (в фигурных скобках) и направление, откуда дует ветер: С - северный, СВ - северо-восточный, В - восточный, ЮВ - юго-восточный, Ю - южный, ЮЗ - юго-западный, З - западный, СЗ - северо-западный.
Видимость - горизонтальная дальность видимости в метрах или километрах. При видимости от 1 до 10 км при отсутствии осадков обычно наблюдается дымка, при ухудшении видимости до 1 км и менее - туман. В сухую погоду видимость может ухудшаться дымом, пылью или мглою.
Явления - указаны атмосферные явления, наблюдавшиеся в срок или в последний час перед сроком; фигурными скобками обозначены явления, наблюдавшиеся между сроками (за 1-3 часа до срока); квадратными скобками обозначены град или гололедные отложения с указанием их диаметра в мм.
Облачность - указаны через наклонную черту общая и нижняя облачность в баллах и высота нижней границы облаков в метрах; квадратными скобками обозначены формы облаков: Ci - перистые, Cs - перисто-слоистые, Cc - перисто-кучевые, Ac - высококучевые, As - высокослоистые, Sc - слоисто-кучевые, Ns - слоисто-дождевые, Cu - кучевые, Cb - кучево-дождевые. Подробнее классификацию облаков см. в Атласе облаков (PDF).
T - Температура воздуха - температура, измеренная на высоте 2 м над землей.
Td - Температура точки росы - температура, при понижении до которой содержащийся в воздухе водяной пар достигнет насыщения.
f - Относительная влажность воздуха - влажноcть воздуха, измеренная на высоте 2 м над землей.
Te - Эффективная температура - температура, которую ощущает одетый по сезону человек в тени. Характеристика душности погоды. При расчете учитывается влияние влажности воздуха и скорости ветра на теплоощущения человека.
Tes - Эффективная температура на солнце - температура, которую ощущает человек, с поправкой на солнечный нагрев. Характеристика знойности погоды. Зависит от высоты солнца над горизонтом, облачности и скорости ветра. Ночью, в пасмурную погоду, а также при ветре 12 м/с и более поправка равна нулю.
P - Атмосферное давление - приведенное к уровню моря атмосферное давление.
Po - Атмосферное давление - измеренное на уровне метеостанции атмосферное давление.
Tmin - Минимальная температура - минимум температуры воздуха на высоте 2 м над землей.
Tmax - Максимальная температура - максимум температуры воздуха на высоте 2 м над землей.
R - Количество осадков - Количество выпавших осадков за период времени, мм. При наведении курсора мыши на число - период времени, за который выпало указанное количество осадков.
R24 - Количество осадков - Количество выпавших осадков за 24 часа, мм.
S - Снежный покров - Высота снежного покрова, см. При наведении курсора мыши на число - состояние снежного покрова и степень покрытия местности в баллах.